Regional Weather Roundup
Issued by NWS Midland/Odessa, TX

Home | Current Version | Previous Version | Text Only | Print | Product List | Glossary On
Versions: 1 2 3 4 5 6 7 8 9 10 11 12 13 14 15 16 17 18 19 20 21 22 23 24 25 26 27 28 29 30 31 32 33 34 35 36 37 38 39 40 41 42 43 44 45 46 47 48 49 50
000
ASUS44 KMAF 250801
RWRMAF
MIDLAND AREA WEATHER ROUNDUP
NATIONAL WEATHER SERVICE MIDLAND TX
300 AM CDT SAT APR 25 2015

...IN SOUTHWEST TEXAS AND SOUTHEAST NEW MEXICO...

CITY           SKY/WX    TMP DP  RH WIND       PRES   REMARKS
ALPINE         CLEAR     46  32  58 W10       30.04S
ANDREWS        FAIR      61  28  28 W14       29.86S
ARTESIA        CLEAR     57  28  33 W12       29.89S
BIG SPRING     CLEAR     56  29  35 S10       29.84F
CARLSBAD       CLEAR     58  28  32 W10       29.87F
DRYDEN           N/A     65  62  90 NE6       29.85S
FORT STOCKTON  CLEAR     57  28  33 W8        29.91S
GUAD PASS      NOT AVBL
HOBBS          CLEAR     52  27  37 W10       29.89S
MARFA          CLEAR     46  30  53 CALM      30.02R
MIDLAND AIRPK  CLEAR     62  30  30 W13       29.84F
MIDLAND INTL   CLEAR     60  30  32 W15       29.83F
ODESSA         CLEAR     57  29  34 W12       29.85F
PECOS          CLEAR     56  28  34 W13       29.88F
PRESIDIO       FAIR      59  26  29 MISG      29.93R
SEMINOLE       CLEAR     56  28  34 W8        29.87R
SNYDER         CLEAR     51  39  63 SW12      29.79S
WINK           CLEAR     53  24  32 W7        29.85F
$$
...OTHER STATIONS IN TEXAS...

CITY           SKY/WX    TMP DP  RH WIND       PRES   REMARKS
ABILENE        CLEAR     58  46  64 SW7       29.76F
AMARILLO       CLEAR     59  27  29 W20       29.72F
AUSTIN         MOCLDY    73  72  96 SW5       29.75F
BROWNSVILLE    CLOUDY    79  76  90 SE20G26   29.70R
CORPUS CHRISTI CLOUDY    77  74  90 E16       29.71F THUNDER FOG
DALLAS FTW     PTCLDY    60  59  96 SW10      29.67F
DEL RIO        MOCLDY    73  70  90 CALM      29.78S FOG
EL PASO        PTCLDY    60  29  30 SW6       29.95S
HOUSTON INT    LGT RAIN  77  74  90 S17G26    29.78R
LUBBOCK        CLEAR     52  33  48 W10       29.80S
SAN ANGELO     CLEAR     56  48  74 W7        29.81S
SAN ANTONIO    CLOUDY    72  68  87 CALM      29.75F
WACO           CLOUDY    64  62  93 W7        29.73R
WICHITA FALLS  NOT AVBL
$$
...OTHER LOCATIONS IN NEW MEXICO...

CITY           SKY/WX    TMP DP  RH WIND       PRES   REMARKS
ALAMAGORDO     CLEAR     50  28  43 SE6       29.95F
ALBUQUERQUE    PTCLDY    51  33  50 W9        29.96F
CANNON AFB     NOT AVBL
CLOVIS         CLEAR     52  30  43 W16       29.83R
HOLLOMAN AFB   NOT AVBL
ROSWELL        CLEAR     59  30  33 W14       29.87R
RUIDOSO        CLEAR     46  27  46 W14       30.01S
SANTA FE       CLEAR     39  28  64 CALM      29.95S
TRUTH OR CONSE CLEAR     53  31  42 NW7       29.96F
TUCUMCARI      CLEAR     54  28  36 W16       29.77F
$$


USA.gov is the U.S. government's official web portal to all federal, state and local government web resources and services.